H1 CPF 2 NER 2021 12 31 9 365 01 glonass121 H2 1000702 9121 36401 2021 12 31 0 0 0 2022 1 3 23 45 0 900 1 1 0 0 0 1 H9 10 0 59579 0.00000 0 8487879.812 15161222.020 18709782.855 10 0 59579 900.00000 0 8727645.503 17333501.406 16602692.990 10 0 59579 1800.00000 0 9101558.848 19204153.903 14174306.511 10 0 59579 2700.00000 0 9561645.780 20730714.077 11471775.467 10 0 59579 3600.00000 0 10053828.391 21882612.583 8547478.900 10 0 59579 4500.00000 0 10520372.369 22642257.529 5458014.377 10 0 59579 5400.00000 0 10902494.866 23005591.018 2263113.777 10 0 59579 6300.00000 0 11143024.166 22982099.949 -975496.778 10 0 59579 7200.00000 0 11189000.619 22594282.195 -4195272.003 10 0 59579 8100.00000 0 10994110.968 21876591.416 -7334036.384 10 0 59579 9000.00000 0 10520854.948 20873904.742 -10331165.643 10 0 59579 9900.00000 0 9742354.061 19639576.814 -13128739.440 10 0 59579 10800.00000 0 8643726.823 18233160.425 -15672644.702 10 0 59579 11700.00000 0 7222972.253 16717887.434 -17913609.681 10 0 59579 12600.00000 0 5491323.295 15158013.528 -19808149.888 10 0 59579 13500.00000 0 3473053.188 13616135.999 -21319408.508 10 0 59579 14400.00000 0 1204739.990 12150595.112 -22417875.485 10 0 59579 15300.00000 0 -1265983.403 10813066.593 -23081971.272 10 0 59579 16200.00000 0 -3882145.291 9646445.315 -23298483.401 10 0 59579 17100.00000 0 -6579549.476 8683108.833 -23062846.300 10 0 59579 18000.00000 0 -9289203.005 7943634.249 -22379257.333 10 0 59579 18900.00000 0 -11939959.081 7436023.526 -21260624.763 10 0 59579 19800.00000 0 -14461267.000 7155471.555 -19728346.385 10 0 59579 20700.00000 0 -16785915.414 7084688.765 -17811920.687 10 0 59579 21600.00000 0 -18852654.534 7194766.694 -15548395.824 10 0 59579 22500.00000 0 -20608586.850 7446551.702 -12981665.060 10 0 59579 23400.00000 0 -22011224.670 7792469.979 -10161620.983 10 0 59579 24300.00000 0 -23030126.255 8178727.003 -7143184.104 10 0 59579 25200.00000 0 -23648039.696 8547787.826 -3985224.735 10 0 59579 26100.00000 0 -23861504.481 8841031.639 -749399.975 10 0 59579 27000.00000 0 -23680884.031 9001465.851 2501069.999 10 0 59579 27900.00000 0 -23129827.249 8976381.739 5702660.374 10 0 59579 28800.00000 0 -22244182.018 8719835.971 8792807.716 10 0 59579 29700.00000 0 -21070407.760 8194849.737 11711156.200 10 0 59579 30600.00000 0 -19663555.989 7375229.621 14400757.201 10 0 59579 31500.00000 0 -18084906.615 6246931.104 16809196.574 10 0 59579 32400.00000 0 -16399362.421 4808905.776 18889626.056 10 0 59579 33300.00000 0 -14672714.080 3073396.032 20601677.789 10 0 59579 34200.00000 0 -12968893.022 1065665.247 21912243.967 10 0 59579 35100.00000 0 -11347329.007 -1176824.323 22796107.102 10 0 59579 36000.00000 0 -9860523.785 -3605750.040 23236409.929 10 0 59579 36900.00000 0 -8551942.080 -6163726.230 23224957.641 10 0 59579 37800.00000 0 -7454306.653 -8786483.909 22762348.757 10 0 59579 38700.00000 0 -6588366.387 -11405341.011 21857934.359 10 0 59579 39600.00000 0 -5962185.937 -13949859.701 20529608.783 10 0 59579 40500.00000 0 -5570983.252 -16350580.479 18803437.825 10 0 59579 41400.00000 0 -5397518.339 -18541720.339 16713133.353 10 0 59579 42300.00000 0 -5413013.888 -20463724.343 14299385.778 10 0 59579 43200.00000 0 -5578566.555 -22065566.729 11609068.037 10 0 59579 44100.00000 0 -5846987.832 -23306708.344 8694326.730 10 0 59579 45000.00000 0 -6164996.196 -24158631.546 5611577.834 10 0 59579 45900.00000 0 -6475668.195 -24605891.244 2420425.740 10 0 59579 46800.00000 0 -6721045.884 -24646640.480 -817474.524 10 0 59579 47700.00000 0 -6844792.007 -24292610.348 -4039591.098 10 0 59579 48600.00000 0 -6794782.534 -23568546.166 -7183703.967 10 0 59579 49500.00000 0 -6525528.831 -22511123.760 -10189087.210 10 0 59579 50400.00000 0 -6000328.789 -21167390.741 -12997663.498 10 0 59579 51300.00000 0 -5193057.116 -19592796.840 -15555110.224 10 0 59579 52200.00000 0 -4089519.569 -17848893.953 -17811897.317 10 0 59579 53100.00000 0 -2688313.519 -16000800.077 -19724237.849 10 0 59579 54000.00000 0 -1001157.060 -14114530.969 -21254933.962 10 0 59579 54900.00000 0 947329.620 -12254308.971 -22374102.242 10 0 59579 55800.00000 0 3120384.577 -10479959.762 -23059764.405 10 0 59579 56700.00000 0 5470378.039 -8844504.626 -23298291.381 10 0 59579 57600.00000 0 7940550.531 -7392048.239 -23084691.051 10 0 59579 58500.00000 0 10467146.283 -6156050.518 -22422732.481 10 0 59579 59400.00000 0 12981856.149 -5158055.578 -21324902.228 10 0 59579 60300.00000 0 15414470.622 -4406932.410 -19812191.249 10 0 59579 61200.00000 0 17695633.712 -3898660.802 -17913714.159 10 0 59579 62100.00000 0 19759583.206 -3616673.342 -15666165.903 10 0 59579 63000.00000 0 21546762.302 -3532740.655 -13113124.394 10 0 59579 63900.00000 0 23006191.829 -3608363.846 -10304211.214 10 0 59579 64800.00000 0 24097501.637 -3796615.824 -7294125.879 10 0 59579 65700.00000 0 24792533.556 -4044353.384 -4141572.395 10 0 59579 66600.00000 0 25076446.161 -4294705.233 -908099.828 10 0 59579 67500.00000 0 24948272.931 -4489728.536 2343119.016 10 0 59579 68400.00000 0 24420908.976 -4573118.697 5548544.956 10 0 59579 69300.00000 0 23520526.446 -4492854.393 8645538.664 10 0 59579 70200.00000 0 22285443.798 -4203662.551 11573608.475 10 0 59579 71100.00000 0 20764497.958 -3669195.841 14275612.841 10 0 59579 72000.00000 0 19014990.104 -2863828.061 16698891.714 10 0 59579 72900.00000 0 17100294.127 -1773989.749 18796303.139 10 0 59579 73800.00000 0 15087230.993 -398986.716 20527143.970 10 0 59579 74700.00000 0 13043321.753 1248733.043 21857936.477 10 0 59579 75600.00000 0 11034036.266 3143874.639 22763066.209 10 0 59579 76500.00000 0 9120153.874 5249140.184 23225259.949 10 0 59579 77400.00000 0 7355346.520 7516584.393 23235896.236 10 0 59579 78300.00000 0 5784084.288 9889423.643 22795144.603 10 0 59579 79200.00000 0 4439948.791 12304221.670 21911933.131 10 0 59579 80100.00000 0 3344422.098 14693359.801 20603747.193 10 0 59579 81000.00000 0 2506198.333 16987688.567 18896265.365 10 0 59579 81900.00000 0 1921043.112 19119250.735 16822841.240 10 0 59579 82800.00000 0 1572203.171 21023963.396 14423842.472 10 0 59579 83700.00000 0 1431345.881 22644149.227 11745860.649 10 0 59579 84600.00000 0 1459986.725 23930813.635 8840807.486 10 0 59579 85500.00000 0 1611343.180 24845575.265 5764914.764 10 0 59580 0.00000 0 1832536.184 25362171.810 2577656.936 10 0 59580 900.00000 0 2067046.767 25467480.697 -659385.477 10 0 59580 1800.00000 0 2257324.825 25162013.211 -3883696.620 10 0 59580 2700.00000 0 2347441.787 24459863.553 -7033014.828 10 0 59580 3600.00000 0 2285676.622 23388114.631 -10046515.269 10 0 59580 4500.00000 0 2026927.801 21985725.491 -12865966.202 10 0 59580 5400.00000 0 1534850.760 20301945.821 -15436837.832 10 0 59580 6300.00000 0 783631.472 18394322.094 -17709343.872 10 0 59580 7200.00000 0 -240678.631 16326376.575 -19639396.792 10 0 59580 8100.00000 0 -1539323.493 14165053.759 -21189459.271 10 0 59580 9000.00000 0 -3100536.230 11978038.409 -22329275.834 10 0 59580 9900.00000 0 -4899781.335 9831055.062 -23036470.486 10 0 59580 10800.00000 0 -6900538.597 7785259.906 -23296998.256 10 0 59580 11700.00000 0 -9055599.582 5894832.764 -23105440.840 10 0 59580 12600.00000 0 -11308826.240 4204869.301 -22465138.981 10 0 59580 13500.00000 0 -13597301.627 2749661.760 -21388157.083 10 0 59580 14400.00000 0 -15853785.806 1551440.972 -19895078.396 10 0 59580 15300.00000 0 -18009376.285 619633.724 -18014632.376 10 0 59580 16200.00000 0 -19996262.795 -49331.808 -15783159.126 10 0 59580 17100.00000 0 -21750461.137 -471662.842 -13243919.283 10 0 59580 18000.00000 0 -23214410.438 -675294.929 -10446261.291 10 0 59580 18900.00000 0 -24339323.070 -698478.599 -7444661.388 10 0 59580 19800.00000 0 -25087186.134 -587919.391 -4297654.895 10 0 59580 20700.00000 0 -25432327.724 -396550.760 -1066680.393 10 0 59580 21600.00000 0 -25362479.648 -181035.860 2185139.213 10 0 59580 22500.00000 0 -24879289.896 893.502 5394252.958 10 0 59580 23400.00000 0 -23998262.081 93145.007 8497948.276 10 0 59580 24300.00000 0 -22748124.204 43903.021 11435600.342 10 0 59580 25200.00000 0 -21169653.998 -191920.020 14149877.348 10 0 59580 26100.00000 0 -19314011.909 -650524.586 16587875.891 10 0 59580 27000.00000 0 -17240654.016 -1357450.837 18702162.697 10 0 59580 27900.00000 0 -15014915.044 -2326267.457 20451701.405 10 0 59580 28800.00000 0 -12705365.417 -3557778.241 21802646.084 10 0 59580 29700.00000 0 -10381055.149 -5039779.530 22728986.633 10 0 59580 30600.00000 0 -8108761.257 -6747377.637 23213034.754 10 0 59580 31500.00000 0 -5950354.306 -8643851.464 23245742.767 10 0 59580 32400.00000 0 -3960393.430 -10682022.507 22826851.269 10 0 59580 33300.00000 0 -2184048.584 -12806073.408 21964865.019 10 0 59580 34200.00000 0 -655434.266 -14953737.750 20676859.796 10 0 59580 35100.00000 0 603579.036 -17058769.004 18988126.040 10 0 59580 36000.00000 0 1584029.696 -19053585.549 16931657.896 10 0 59580 36900.00000 0 2289982.047 -20871981.986 14547498.863 10 0 59580 37800.00000 0 2738094.384 -22451794.961 11881957.552 10 0 59580 38700.00000 0 2956659.012 -23737414.032 8986708.994 10 0 59580 39600.00000 0 2984156.893 -24682034.907 5917798.790 10 0 59580 40500.00000 0 2867389.070 -25249563.234 2734568.759 10 0 59580 41400.00000 0 2659263.992 -25416091.573 -501476.171 10 0 59580 42300.00000 0 2416333.599 -25170889.634 -3727839.079 10 0 59580 43200.00000 0 2196181.020 -24516867.681 -6882219.103 10 0 59580 44100.00000 0 2054768.569 -23470494.364 -9903695.071 10 0 59580 45000.00000 0 2043856.245 -22061172.261 -12733883.471 10 0 59580 45900.00000 0 2208598.052 -20330096.353 -15318050.023 10 0 59580 46800.00000 0 2585416.364 -18328641.503 -17606154.880 10 0 59580 47700.00000 0 3200243.314 -16116344.184 -19553812.460 10 0 59580 48600.00000 0 4067203.575 -13758560.135 -21123148.300 10 0 59580 49500.00000 0 5187795.124 -11323892.988 -22283536.882 10 0 59580 50400.00000 0 6550604.461 -8881498.582 -23012206.124 10 0 59580 51300.00000 0 8131571.091 -6498375.119 -23294696.370 10 0 59580 52200.00000 0 9894793.613 -4236750.374 -23125163.893 10 0 59580 53100.00000 0 11793847.248 -2151674.001 -22506521.473 10 0 59580 54000.00000 0 13773561.283 -288915.046 -21450411.321 10 0 59580 54900.00000 0 15772185.216 1316747.136 -19977008.580 10 0 59580 55800.00000 0 17723855.333 2642766.033 -18114656.793 10 0 59580 56700.00000 0 19561260.015 3679551.798 -15899340.112 10 0 59580 57600.00000 0 21218392.502 4430643.861 -13374000.408 10 0 59580 58500.00000 0 22633275.019 4912323.666 -10587711.106 10 0 59580 59400.00000 0 23750538.346 5152682.878 -7594722.898 10 0 59580 60300.00000 0 24523746.084 5190186.087 -4453399.779 10 0 59580 61200.00000 0 24917363.110 5071789.127 -1225066.898 10 0 59580 62100.00000 0 24908282.595 4850693.993 2027205.911 10 0 59580 63000.00000 0 24486844.761 4583837.510 5239859.186 10 0 59580 63900.00000 0 23657302.627 4329222.898 8350110.408 10 0 59580 64800.00000 0 22437714.129 4143210.460 11297204.784 10 0 59580 65700.00000 0 20859265.076 4077885.373 14023623.253 10 0 59580 66600.00000 0 18965052.393 4178616.999 16476221.831 10 0 59580 67500.00000 0 16808380.402 4481915.408 18607278.408 10 0 59580 68400.00000 0 14450643.874 5013677.369 20375425.582 10 0 59580 69300.00000 0 11958888.990 5787896.647 21746451.051 10 0 59580 70200.00000 0 9403156.522 6805892.857 22693950.529 10 0 59580 71100.00000 0 6853719.943 8056090.524 23199821.702 10 0 59580 72000.00000 0 4378334.791 9514356.141 23254591.314 10 0 59580 72900.00000 0 2039613.934 11144877.344 22857571.196 10 0 59580 73800.00000 0 -107362.972 12901545.558 22016842.478 10 0 59580 74700.00000 0 -2017108.159 14729782.554 20749070.556 10 0 59580 75600.00000 0 -3655369.744 16568733.367 19079156.499 10 0 59580 76500.00000 0 -5000295.969 18353733.332 17039733.362 10 0 59580 77400.00000 0 -6043074.801 20018946.137 14670518.516 10 0 59580 78300.00000 0 -6788025.992 21500063.481 12017535.362 10 0 59580 79200.00000 0 -7252145.144 22736954.821 9132219.802 10 0 59580 80100.00000 0 -7464121.667 23676158.207 6070428.676 10 0 59580 81000.00000 0 -7462873.889 24273110.117 2891368.764 10 0 59580 81900.00000 0 -7295664.016 24494023.038 -343533.944 10 0 59580 82800.00000 0 -7015872.443 24317334.081 -3571803.992 10 0 59580 83700.00000 0 -6680524.591 23734665.397 -6731104.127 10 0 59580 84600.00000 0 -6347673.304 22751257.002 -9760419.596 10 0 59580 85500.00000 0 -6073745.522 21385853.942 -12601217.756 10 0 59581 0.00000 0 -5910963.446 19670051.987 -15198562.083 10 0 59581 900.00000 0 -5904947.311 17647126.658 -17502161.906 10 0 59581 1800.00000 0 -6092599.909 15370394.810 -19467335.357 10 0 59581 2700.00000 0 -6500361.261 12901171.383 -21055872.585 10 0 59581 3600.00000 0 -7142907.628 10306405.885 -22236779.493 10 0 59581 4500.00000 0 -8022350.756 7656093.372 -22986889.074 10 0 59581 5400.00000 0 -9127973.214 5020565.249 -23291327.793 10 0 59581 6300.00000 0 -10436513.851 2467770.485 -23143826.935 10 0 59581 7200.00000 0 -11912994.667 60659.024 -22546871.318 10 0 59581 8100.00000 0 -13512057.950 -2145224.437 -21511680.510 10 0 59581 9000.00000 0 -15179760.879 -4103836.003 -20058020.625 10 0 59581 9900.00000 0 -16855755.085 -5780329.268 -18213847.933 10 0 59581 10800.00000 0 -18475761.717 -7152281.083 -16014788.869 10 0 59581 11700.00000 0 -19974239.079 -8210393.598 -13503464.464 10 0 59581 12600.00000 0 -21287130.615 -8958641.578 -10728670.801 10 0 59581 13500.00000 0 -22354576.565 -9413857.674 -7744430.532 10 0 59581 14400.00000 0 -23123473.120 -9604772.389 -4608933.736 10 0 59581 15300.00000 0 -23549768.583 -9570549.294 -1383389.462 10 0 59581 16200.00000 0 -23600396.885 -9358878.318 1869188.240 10 0 59581 17100.00000 0 -23254764.034 -9023709.465 5085234.163 10 0 59581 18000.00000 0 -22505722.442 -8622725.366 8201898.615 10 0 59581 18900.00000 0 -21359990.374 -8214662.681 11158299.598 10 0 59581 19800.00000 0 -19837998.028 -7856598.967 13896733.497 10 0 59581 20700.00000 0 -17973166.934 -7601322.946 16363818.296 10 0 59581 21600.00000 0 -15810653.990 -7494902.108 18511545.362 10 0 59581 22500.00000 0 -13405614.526 -7574552.427 20298218.237 10 0 59581 23400.00000 0 -10821059.394 -7866901.270 21689259.836 10 0 59581 24300.00000 0 -8125397.830 -8386716.941 22657872.827 10 0 59581 25200.00000 0 -5389770.641 -9136157.730 23185541.550 10 0 59581 26100.00000 0 -2685286.283 -10104570.664 23262367.389 10 0 59581 27000.00000 0 -80275.443 -11268846.542 22887233.208 10 0 59581 27900.00000 0 2362322.101 -12594314.332 22067795.940 10 0 59581 28800.00000 0 4587331.004 -14036135.375 20820309.723 10 0 59581 29700.00000 0 6549377.911 -15541137.332 19169285.105 10 0 59581 30600.00000 0 8214511.353 -17050009.921 17146992.665 10 0 59581 31500.00000 0 9561339.979 -18499769.998 14792822.034 10 0 59581 32400.00000 0 10581645.447 -19826392.973 12152509.576 10 0 59581 33300.00000 0 11280447.974 -20967501.274 9277250.039 10 0 59581 34200.00000 0 11675524.938 -21864998.660 6222709.295 10 0 59581 35100.00000 0 11796405.225 -22467541.790 3047956.722 10 0 59581 36000.00000 0 11682883.219 -22732747.475 -185663.095 10 0 59581 36900.00000 0 11383115.588 -22629044.900 -3415698.690 10 0 59581 37800.00000 0 10951380.859 -22137096.749 -6579778.972 10 0 59581 38700.00000 0 10445595.232 -21250730.618 -9616798.150 10 0 59581 39600.00000 0 9924687.829 -19977342.004 -12468076.972 10 0 59581 40500.00000 0 9445944.248 -18337751.485 -15078479.575 10 0 59581 41400.00000 0 9062428.584 -16365520.707 -17397465.886 10 0 59581 42300.00000 0 8820590.995 -14105753.746 -19380060.452 10 0 59581 43200.00000 0 8758160.584 -11613431.221 -20987720.006 10 0 59581 44100.00000 0 8902411.976 -8951343.548 -22189083.547 10 0 59581 45000.00000 0 9268879.084 -6187706.367 -22960590.439 10 0 59581 45900.00000 0 9860571.528 -3393554.323 -23286954.159 10 0 59581 46800.00000 0 10667728.885 -640018.996 -23161481.458 10 0 59581 47700.00000 0 11668125.849 2004397.724 -22586229.222 10 0 59581 48600.00000 0 12827918.689 4476442.681 -21571994.015 10 0 59581 49500.00000 0 14103000.648 6720514.349 -20138132.194 10 0 59581 50400.00000 0 15440812.209 8690749.020 -18312211.692 10 0 59581 51300.00000 0 16782532.448 10352702.279 -16129499.846 10 0 59581 52200.00000 0 18065560.728 11684554.070 -13632295.139 10 0 59581 53100.00000 0 19226184.652 12677785.211 -10869114.307 10 0 59581 54000.00000 0 20202321.213 13337295.555 -7893749.661 10 0 59581 54900.00000 0 20936213.962 13680957.762 -4764214.782 10 0 59581 55800.00000 0 21376969.941 13738625.057 -1541599.835 10 0 59581 56700.00000 0 21482826.412 13550635.267 1711139.851 10 0 59581 57600.00000 0 21223048.659 13165875.624 4930436.318 10 0 59581 58500.00000 0 20579375.924 12639492.201 8053375.653 10 0 59581 59400.00000 0 19546952.208 12030343.666 11018951.502 10 0 59581 60300.00000 0 18134701.196 11398310.128 13769278.367 10 0 59581 61200.00000 0 16365128.973 10801574.096 16250738.664 10 0 59581 62100.00000 0 14273563.195 10293991.365 18415039.454 10 0 59581 63000.00000 0 11906861.738 9922665.193 20220157.189 10 0 59581 63900.00000 0 9321646.795 9725827.625 21631151.669 10 0 59581 64800.00000 0 6582140.197 9731117.844 22620833.875 10 0 59581 65700.00000 0 3757692.319 9954329.633 23170275.805 10 0 59581 66600.00000 0 920109.200 10398679.397 23269154.086 10 0 59581 67500.00000 0 -1859109.932 11054623.604 22915922.778 10 0 59581 68400.00000 0 -4511509.825 11900231.035 22117814.307 10 0 59581 69300.00000 0 -6974278.011 12902091.825 20890670.747 10 0 59581 70200.00000 0 -9192599.114 14016722.999 19258610.848 10 0 59581 71100.00000 0 -11121669.386 15192409.825 17253541.015 10 0 59581 72000.00000 0 -12728290.759 16371404.632 14914521.076 10 0 59581 72900.00000 0 -13991981.632 17492390.490 12286998.046 10 0 59581 73800.00000 0 -14905561.671 18493106.755 9421923.020 10 0 59581 74700.00000 0 -15475189.441 19313027.267 6374768.311 10 0 59581 75600.00000 0 -15719854.205 19895980.298 3204463.275 10 0 59581 76500.00000 0 -15670345.243 20192602.035 -27731.543 10 0 59581 77400.00000 0 -15367743.162 20162522.414 -3259391.287 10 0 59581 78300.00000 0 -14861496.973 19776193.169 -6428113.639 10 0 59581 79200.00000 0 -14207167.279 19016282.558 -9472704.320 10 0 59581 80100.00000 0 -13463929.369 17878578.804 -12334339.954 10 0 59581 81000.00000 0 -12691939.668 16372364.194 -14957687.476 10 0 59581 81900.00000 0 -11949674.517 14520243.044 -17291960.071 10 0 59581 82800.00000 0 -11291351.461 12357428.930 -19291890.431 10 0 59581 83700.00000 0 -10764540.080 9930518.342 -20918603.605 10 0 59581 84600.00000 0 -10408061.904 7295798.823 -22140373.130 10 0 59581 85500.00000 0 -10250267.537 4517158.799 -22933245.879 10 0 59582 0.00000 0 -10307764.012 1663682.988 -23281523.112 10 0 59582 900.00000 0 -10584647.392 -1192971.209 -23178087.509 10 0 59582 1800.00000 0 -11072274.871 -3981305.829 -22624567.955 10 0 59582 2700.00000 0 -11749588.730 -6632716.305 -21631337.539 10 0 59582 3600.00000 0 -12583981.418 -9084110.638 -20217341.938 10 0 59582 4500.00000 0 -13532668.153 -11280306.259 -18409759.380 10 0 59582 5400.00000 0 -14544511.737 -13176103.718 -16243496.343 10 0 59582 6300.00000 0 -15562224.442 -14737949.318 -13760526.689 10 0 59582 7200.00000 0 -16524854.975 -15945115.399 -11009085.477 10 0 59582 8100.00000 0 -17370455.393 -16790347.142 -8042732.185 10 0 59582 9000.00000 0 -18038814.175 -17279947.282 -4919301.317 10 0 59582 9900.00000 0 -18474137.832 -17433294.203 -1699761.510 10 0 59582 10800.00000 0 -18627565.004 -17281813.622 1552993.291 10 0 59582 11700.00000 0 -18459403.645 -16867447.954 4775395.056 10 0 59582 12600.00000 0 -17940993.676 -16240689.582 7904468.350 10 0 59582 13500.00000 0 -17056113.734 -15458263.539 10879085.143 10 0 59582 14400.00000 0 -15801870.534 -14580560.406 13641180.676 10 0 59582 15300.00000 0 -14189032.178 -13668931.030 16136904.283 10 0 59582 16200.00000 0 -12241791.047 -12782960.358 18317681.009 10 0 59582 17100.00000 0 -9996966.761 -11977837.981 20141162.199 10 0 59582 18000.00000 0 -7502683.920 -11301938.143 21572046.171 10 0 59582 18900.00000 0 -4816581.682 -10794712.043 22582753.423 10 0 59582 19800.00000 0 -2003631.720 -10484981.096 23153944.381 10 0 59582 20700.00000 0 866342.618 -10389701.852 23274871.233 10 0 59582 21600.00000 0 3721341.558 -10513252.640 22943559.141 10 0 59582 22500.00000 0 6489946.721 -10847269.467 22166815.542 10 0 59582 23400.00000 0 9104047.189 -11371035.400 20960069.631 10 0 59582 24300.00000 0 11501421.783 -12052404.404 19347047.252 10 0 59582 25200.00000 0 13628072.319 -12849218.557 17359289.238 10 0 59582 26100.00000 0 15440213.479 -13711157.375 15035523.976 10 0 59582 27000.00000 0 16905839.754 -14581940.506 12420907.218 10 0 59582 27900.00000 0 18005807.586 -15401790.996 9566144.250 10 0 59582 28800.00000 0 18734390.823 -16110056.053 6526511.429 10 0 59582 29700.00000 0 19099289.333 -16647876.235 3360795.475 10 0 59582 30600.00000 0 19121092.771 -16960792.343 130170.132 10 0 59582 31500.00000 0 18832223.580 -17001182.168 -3102969.189 10 0 59582 32400.00000 0 18275404.368 -16730426.313 -6276191.770 10 0 59582 33300.00000 0 17501713.902 -16120713.433 -9328217.617 10 0 59582 34200.00000 0 16568312.528 -15156409.935 -12200081.861 10 0 59582 35100.00000 0 15535931.153 -13834936.744 -14836256.717 10 0 59582 36000.00000 0 14466227.444 -12167115.638 -17185710.917 10 0 59582 36900.00000 0 13419118.414 -10176969.137 -19202887.369 10 0 59582 37800.00000 0 12450199.596 -7900979.889 -20848581.247 10 0 59582 38700.00000 0 11608357.807 -5386837.449 -22090702.131 10 0 59582 39600.00000 0 10933676.898 -2691721.370 -22904905.556 10 0 59582 40500.00000 0 10455724.342 119811.547 -23275081.341 10 0 59582 41400.00000 0 10192291.274 2978251.320 -23193688.309 10 0 59582 42300.00000 0 10148640.380 5811772.286 -22661927.349 10 0 59582 43200.00000 0 10317295.242 8548976.715 -21689747.556 10 0 59582 44100.00000 0 10678382.495 11121631.862 -20295683.013 10 0 59582 45000.00000 0 11200514.950 13467287.013 -18506520.950 10 0 59582 45900.00000 0 11842180.898 15531661.116 -16356805.349 10 0 59582 46800.00000 0 12553582.911 17270700.271 -13888183.474 10 0 59582 47700.00000 0 13278849.702 18652217.320 -11148606.438 10 0 59582 48600.00000 0 13958527.823 19657043.014 -8191398.340 10 0 59582 49500.00000 0 14532247.103 20279638.665 -5074211.821 10 0 59582 50400.00000 0 14941445.328 20528143.033 -1857891.038 10 0 59582 51300.00000 0 15132034.379 20423850.800 1394734.498 10 0 59582 52200.00000 0 15056891.965 20000144.662 4620099.748 10 0 59582 53100.00000 0 14678070.349 19300927.106 7755170.725 10 0 59582 54000.00000 0 13968625.637 18378619.952 10738700.528 10 0 59582 54900.00000 0 12913987.781 17291818.642 13512447.725 10 0 59582 55800.00000 0 11512811.719 16102703.268 16022330.912 10 0 59582 56700.00000 0 9777272.817 14874318.602 18219495.171 10 0 59582 57600.00000 0 7732794.114 13667840.573 20061268.523 10 0 59582 58500.00000 0 5417217.601 12539946.493 21511989.269 10 0 59582 59400.00000 0 2879455.560 11540401.034 22543688.578 10 0 59582 60300.00000 0 177679.967 10709959.741 23136616.086 10 0 59582 61200.00000 0 -2622872.713 10078677.464 23279599.938 10 0 59582 62100.00000 0 -5452388.505 9664691.034 22970236.350 10 0 59582 63000.00000 0 -8239150.324 9473524.873 22214907.250 10 0 59582 63900.00000 0 -10912288.380 9497945.794 21028627.946 10 0 59582 64800.00000 0 -13404492.951 9718370.038 19434729.877 10 0 59582 65700.00000 0 -15654578.340 10103802.583 17464386.378 10 0 59582 66600.00000 0 -17609793.524 10613266.875 15155992.083 10 0 59582 67500.00000 0 -19227786.225 11197663.117 12554408.896 10 0 59582 68400.00000 0 -20478141.714 11801976.022 9710093.543 10 0 59582 69300.00000 0 -21343435.336 12367738.987 6678123.599 10 0 59582 70200.00000 0 -21819757.822 12835651.574 3517140.350 10 0 59582 71100.00000 0 -21916693.976 13148241.270 288228.014 10 0 59582 72000.00000 0 -21656757.473 13252459.006 -2946250.086 10 0 59582 72900.00000 0 -21074306.565 13102100.870 -6123837.361 10 0 59582 73800.00000 0 -20213986.404 12659955.563 -9183170.539 10 0 59582 74700.00000 0 -19128762.783 11899588.483 -12065145.579 10 0 59582 75600.00000 0 -17877628.564 10806687.876 -14714042.170 10 0 59582 76500.00000 0 -16523077.259 9379916.294 -17078586.599 10 0 59582 77400.00000 0 -15128447.756 7631230.481 -19112933.781 10 0 59582 78300.00000 0 -13755249.491 5585654.290 -20777550.528 10 0 59582 79200.00000 0 -12460578.388 3280511.267 -22039983.667 10 0 59582 80100.00000 0 -11294730.547 764145.657 -22875498.236 10 0 59582 81000.00000 0 -10299112.974 -1905818.551 -23267573.079 10 0 59582 81900.00000 0 -9504538.909 -4664611.761 -23208243.291 10 0 59582 82800.00000 0 -8929980.044 -7442760.556 -22698281.374 10 0 59582 83700.00000 0 -8581829.378 -10168738.394 -21747211.666 10 0 59582 84600.00000 0 -8453707.611 -12771716.932 -20373155.476 10 0 59582 85500.00000 0 -8526823.455 -15184304.388 -18602507.474 99